Location: Follega
(52.8850°N, 5.7362°E)
Time: 23:41:50
(UTC+00:00)

ERS-1 Rocket - Pass Details

Date: 09 October 2020
Orbit: 753 x 757 km, 98.5° (Epoch: 24 October)

Event Time Altitude Azimuth Distance (km) Brightness Sun altitude
Exits shadow 20:18:17 26° 14° (NNE) 1,464 4.5 -30.4°
Drops below altitude 10° 20:20:46 10° 356° (N) 2,300 5.9 -30.7°
Sets 20:23:10 0° 349° (N) 3,230 6.8 -31.0°
